Regional Weather Roundup
Issued by NWS

Home | Current Version | Previous Version | Graphics & Text | Print | Product List | Glossary Off
Versions: 1 2 3 4 5 6 7 8 9 10 11 12 13 14 15 16 17 18 19 20 21 22 23 24 25 26 27 28 29 30 31 32 33 34 35 36 37 38 39 40 41 42 43 44 45 46 47 48 49 50

000
ASUS43 KTOP 152159
RWRKS

WEATHER ROUNDUP FOR KANSAS
NATIONAL WEATHER SERVICE GOODLAND KS
500 PM CDT TUE APR 15 2014

NOTE:  "FAIR" INDICATES FEW OR NO CLOUDS BELOW 12,000 FEET WITH NO
SIGNIFICANT WEATHER AND/OR OBSTRUCTIONS TO VISIBILITY.

KSZ001>006-013>018-027>032-041>047-152300-
NORTHWEST KANSAS

CITY           SKY/WX    TMP DP  RH WIND       PRES   REMARKS
GOODLAND       PTSUNNY   63  16  16 SW21G28   29.81F
HAYS           CLOUDY    64  25  22 S23G32    29.88F
HILL CITY      PTSUNNY   67  20  16 S22G28    29.83F
RUSSELL        CLOUDY    65  21  18 S25G37    29.88F
$$

KSZ061>065-074>080-084>089-152300-
SOUTHWEST KANSAS

CITY           SKY/WX    TMP DP  RH WIND       PRES   REMARKS
DODGE CITY     CLOUDY    63  21  20 SW26      29.91F
ELKHART          N/A     65  22  19 S18         N/A
GARDEN CITY    PTSUNNY   64  22  20 SW21G30   29.88F
GREAT BEND     PTSUNNY   64  21  19 S26G32    29.91F
LIBERAL        SUNNY     68  25  19 S20G26    29.90F
$$

KSZ066>073-081>083-090>101-152300-
SOUTHEAST KANSAS

CITY           SKY/WX    TMP DP  RH WIND       PRES   REMARKS
CHANUTE        SUNNY     58  27  30 S10       30.10F
COFFEYVILLE    SUNNY     60  24  25 S8        30.10F
HUTCHINSON     PTSUNNY   65  17  15 S22G30    29.98F
MEDICINE LODGE   N/A     68  16  13 S18G28    29.98F
NEWTON         MOSUNNY   61  19  20 S17G24    30.04F
PARSONS        SUNNY     60  23  24 S10G16    30.10F
WICHITA INTL   PTSUNNY   62  19  19 SW13G22   30.01F
WICHITA JABRA  MOSUNNY   61  19  19 SW18G24   30.01F
WINFIELD       SUNNY     62  17  17 S15G21    30.06F
$$

KSZ007>012-019>026-033>040-048>060-102>105-152300-
NORTHEAST KANSAS

CITY           SKY/WX    TMP DP  RH WIND       PRES   REMARKS
CONCORDIA      MOSUNNY   62  19  19 S24G32    29.92F
EMPORIA        SUNNY     59  21  23 SW16G23   30.03F
LAWRENCE       SUNNY     57  26  30 S12       30.07F
MANHATTAN      MOSUNNY   62  22  21 S17       29.98F
OLATHE IND     SUNNY     53  25  33 S9G18     30.08F
OLATHE EXE     SUNNY     52  25  35 S8        30.08F
SALINA         PTSUNNY   64  19  17 S17       29.97F
TOPEKA BILLARD SUNNY     58  23  26 S9        30.05F
TOPEKA FORBES  SUNNY     58  24  27 SW10      30.04F
$$



USA.gov is the U.S. government's official web portal to all federal, state and local government web resources and services.